Weather in Urman

Russia / Republic of Bashkortostan     54°52′15″N   56°52′13″E
temp.,
°C
wind,
m/s
gust,
m/s
humid.,
%
clouds,
%
prec.,
mm/h
press.,
hPa
HPBL,
m
23 october, sat
sat2323:00+8sw71679100 0.0 1005661
02:00+9sw7148372 0.2 1006673
05:00+8sw7148853 0.2 1007540
08:00+7ssw6139350 0.0 1008449
11:00+9sw8138678 0.1 1010698
14:00+12sw8147191 0.4 10101388
17:00+11wsw712595 0.7 1011762
20:00+8sw51269100 0.1 1013298
24 october, sun
sun2423:00+8ssw4127496 0.3 1014368
02:00+7ssw3887100 0.1 1014161
05:00+7s3690100 0.1 1013138
08:00+7sse3895100 0.4 1011205
11:00+7s2598100 5.4 1008222
14:00+6wnw71091100 1.5 1010580
17:00+6w4782100 1.6 1012693
20:00+6s3585100 0.1 1013162
25 october, mon
mon2523:00+5wsw228537 0.2 101435
02:00+3sw228347 0.0 101413
05:00+2ssw228791 0.0 101512
08:00+2sse1188100 0.0 101410
11:00+4w0180100 0.0 101489
14:00+5nnw1174100 0.0 1014280
17:00+5nnw2477100 0.0 1013349
20:00+3nw228683 0.0 101540
26 october, tue
tue2623:00+2nnw5996100 0.0 1016507
02:00−1n5118414 0.1 1019607
05:00−2nnw49845 0.1 1021476
08:00−3nnw38855 0.0 1023445
11:00−1nnw34685 0.0 1024601
14:00+1nw34525 0.0 1024910
17:00+1nw2256100 0.0 102439
20:000ssw226026 0.0 102522
27 october, wed
wed2723:00−1s3666100 0.0 1025167
02:000s496379 0.0 1025334
05:00−1s4106191 0.0 1024338
08:00−1s411625 0.0 1024321
11:00+1ssw510525 0.0 1024526
14:00+4ssw6104812 0.0 1022817
17:00+3ssw51156100 0.0 1021409
20:00+2ssw41164100 0.0 1020358